SCP
0 0 0 0 0 0 0 0 0 0 0 0 0 0 0 0 0 0 0 0 0 0 0 0 0 0 0 0 0 0 0 0 0 0 0 0 0 0 0 0 0 0 0 0 0
0 0 0 0 -0 -0 -0 -0 0 0 0 0 0 0 0 0 0 0 0 0 0 0 0 0 0 0 0 0 0 0 0 0 0 0 0 0 0 0 0 0 0 0 0 0 0
0 0 -0 -0 -0 -0 -0 -0 0 0 0 0 0 0 0 0 0 0 0 0 0 0 0 0 0 0 0 0 0 0 0 0 0 0 0 0 0 0 0 0 0 0 0 0 0
-0 -0 -0 -0 -0 -0 -0 -0 -0 0 0 0 0 0 0 0 0 0 0 0 0 0 0 0 0 0 0 0 0 0 0 0 0 0 0 0 0 0 0 0 0 0 0 0 0
-0 -0 -0 -0 -0 -0 -0 -0 -0 -0 0 0 0 0 0 0 0 0 0 0 0 0 0 0 0 0 0 0 0 0 0 0 0 0 0 0 0 0 0 0 0 0 0 0 0
0 -0 -0 -0 -0 -0 -0 -0 -0 -0 -0 0 0 0 0 0 0 0 0 0 0 0 0 0 0 0 0 0 0 0 0 0 0 0 0 0 0 0 0 0 0 0 0 0 0
0 0 -0 -0 -0 -0 -0 -0 -0 -0 -0 -0 0 0 0 0 0 0 0 0 0 0 0 0 0 0 0 0 0 0 0 0 0 0 0 0 0 0 0 0 0 0 0 0 0
0 0 -0 -0 0 0 -0 -0 -0 -0 -0 -0 -0 0 0 0 0 0 0 0 0 0 0 0 0 0 0 0 0 0 0 0 0 0 0 0 0 0 0 0 0 0 0 0 0
0 0 -0 -0 0 0 -0 -0 0 0 0 0 0 0 0 0 0 0 0 0 0 0 0 0 0 0 0 0 0 0 0 0 0 0 0 0 0 0 0 0 0 0 0 0 0
0 0 -0 0 0 0 0 0 0 0 0 0 0 0 -0 -0 -0 -0 0 0 0 0 0 0 0 0 0 0 0 0 0 0 0 0 0 0 0 0 0 0 0 0 0 0 0
0 0 0 0 0 0 0 0 0 0 0 0 0 0 0 -0 -0 -0 -0 -0 0 0 0 0 0 0 0 0 0 0 0 0 0 0 0 0 0 0 0 0 0 0 0 0 0
0 0 0 0 0 0 0 0 0 0 0 0 0 0 0 0 0 -0 -0 -0 0 0 0 -0 0 0 0 0 0 0 0 0 0 0 0 0 0 0 0 0 0 0 0 0 0
0 0 0 0 0 0 0 0 0 0 0 0 0 0 0 0 0 0 0 0 -0 -0 -0 -0 0 0 -0 -0 0 0 0 0 -0 0 0 0 -0 0 0 0 0 0 0 0 0
0 0 0 0 0 0 0 0 0 0 0 0 0 0 0 0 0 0 0 0 -0 -0 -0 -0 0 0 0 0 0 0 0 0 0 0 0 0 0 0 0 0 0 0 0 0 0
0 0 -0 0 0 0 0 0 0 0 0 0 0 0 0 0 0 0 0 0 0 0 0 0 -0 -0 -0 0 0 0 0 0 0 0 0 0 0 -0 0 -0 0 0 0 0 0
-0 -0 0 0 0 0 0 0 0 0 0 0 0 0 0 0 0 0 0 0 0 0 0 0 0 0 0 0 0 0 0 0 0 0 0 0 0 -0 -0 0 0 0 0 0 0
0 -0 -0 0 0 0 0 0 0 0 0 0 0 0 0 0 0 0 0 0 0 0 0 0 0 0 0 0 0 0 0 0 0 0 0 0 0 0 0 0 0 0 0 -0 0
0 0 0 0 0 0 0 0 0 0 0 0 0 0 0 0 0 0 0 0 0 0 0 0 0 0 0 0 0 0 0 0 0 0 0 0 0 0 0 0 0 0 0 0 0
-0 0 0 0 0 0 0 0 0 0 0 0 0 0 0 0 0 0 0 0 0 0 0 0 0 0 0 0 0 0 0 0 0 0 0 0 0 0 0 0 0 0 0 0 0
0 0 0 0 0 0 0 0 0 0 0 0 0 0 0 0 0 0 0 0 0 0 0 0 0 0 0 0 0 0 0 0 0 0 0 0 0 0 0 0 0 0 0 -0 0
-0 0 0 -0 0 0 0 0 0 0 0 0 0 0 0 0 0 0 0 0 0 0 0 0 0 0 0 0 0 0 0 0 0 0 0 0 0 0 0 0 0 0 -0 0 0
0 0 -0 -0 0 0 0 0 0 0 0 0 0 0 0 0 0 0 0 0 0 0 0 0 0 0 0 0 0 0 0 0 0 0 0 0 0 0 0 0 0 -0 0 0 0
0 0 -0 0 0 0 0 0 0 0 0 0 0 0 0 0 0 0 0 0 0 0 0 0 0 0 0 0 0 0 0 0 0 0 0 0 0 0 0 0 -0 0 0 0 0
0 0 0 0 0 0 0 0 0 0 0 0 0 0 0 0 0 0 0 0 0 0 0 0 0 0 0 0 0 0 0 0 0 0 0 0 0 0 0 0 0 0 0 0 0
0 0 0 0 0 0 0 0 0 0 0 0 0 0 0 0 0 0 0 0 0 0 0 0 0 0 0 0 0 0 0 0 0 0 0 0 0 0 0 0 0 0 0 0 0
0 0 0 0 0 0 0 0 0 0 0 0 0 0 0 0 0 0 0 0 0 0 0 0 0 0 0 0 0 0 0 0 0 0 0 0 0 0 0 0 0 0 0 0 0
0 0 0 0 0 0 0 0 0 0 0 0 0 0 0 0 0 0 0 0 0 0 0 0 0 0 0 0 0 0 0 0 0 0 0 0 0 0 0 0 0 0 0 0 0
Wind_Speed_500mb
25 24 23 24 27 29 31 31 30 29 24 18 14 11 10 13 13 12 12 20 17 12 10 7 9 13 14 10 9 6 8 3 2 6 5 14 7 6 5 3 1 1 1 3 13
25 23 21 23 26 27 29 30 27 26 22 18 11 9 5 8 7 24 23 19 15 10 10 7 12 14 9 6 7 9 6 5 0 0 2 10 6 10 2 3 1 4 5 8 17
31 21 18 21 24 26 29 30 27 24 21 16 10 6 5 5 8 24 23 19 12 8 9 9 11 10 9 6 8 5 5 2 4 7 4 9 2 10 5 5 4 9 13 9 22
21 18 17 21 22 27 26 29 26 24 21 15 10 7 8 5 4 19 20 16 11 8 8 10 8 6 7 7 7 8 6 3 2 6 3 4 12 6 3 3 10 11 14 15 24
19 19 21 18 21 24 24 28 24 22 18 15 7 8 9 14 16 18 18 14 10 9 10 10 10 6 8 8 7 7 2 6 3 6 5 6 3 6 9 8 9 8 11 16 17
13 14 17 18 20 24 23 22 21 21 17 14 12 11 10 15 20 19 18 14 12 10 14 11 10 14 13 8 8 4 6 5 6 11 5 4 3 5 3 6 8 9 14 17 18
12 15 17 17 23 27 17 12 17 20 16 14 14 23 31 17 22 21 17 16 15 14 16 15 13 5 7 7 8 6 3 4 15 16 4 8 2 8 9 4 8 14 17 18 18
12 17 16 18 22 20 15 14 13 16 16 12 11 14 16 21 19 16 16 19 16 16 16 16 15 15 10 10 10 9 9 7 4 19 5 3 12 5 7 10 13 16 19 19 21
16 19 19 19 16 12 14 17 13 13 20 16 15 11 10 14 19 23 19 17 18 18 17 13 8 11 8 7 9 13 1 3 10 8 8 2 10 7 9 14 20 20 20 20 21
20 23 22 18 12 14 10 13 37 12 5 11 20 10 23 21 24 25 14 15 13 10 8 6 10 9 9 10 4 4 4 6 7 11 10 8 19 14 18 17 24 23 22 21 21
19 27 25 22 18 14 15 4 4 17 53 27 21 15 28 12 28 26 15 8 9 15 10 13 15 8 7 8 4 3 3 7 4 9 9 6 15 26 39 31 33 29 27 24 23
18 21 21 22 23 22 21 17 21 14 23 33 32 26 28 23 13 36 19 9 16 9 14 12 8 8 8 8 8 9 4 8 9 8 5 12 27 26 29 22 24 28 29 27 26
18 16 15 20 24 23 23 27 18 11 10 21 32 31 27 21 20 36 29 12 16 12 14 12 5 13 6 12 9 6 4 6 7 14 6 14 14 13 6 7 13 22 24 29 29
12 11 13 16 13 16 17 13 12 10 10 23 23 21 26 6 12 31 24 12 16 4 8 12 15 9 9 9 8 5 8 6 7 10 5 12 9 15 11 18 14 24 30 29 24
11 11 13 20 12 14 9 5 4 2 11 20 15 18 16 15 9 22 29 20 9 8 7 5 11 13 16 4 5 5 9 6 5 8 8 16 8 17 9 12 12 21 26 29 25
20 13 11 12 16 12 9 5 4 13 3 13 15 20 11 21 15 22 12 16 10 8 13 4 4 6 3 5 0 3 2 9 7 6 6 7 6 13 6 5 10 19 36 23 28
16 15 13 14 10 9 8 4 10 13 7 13 8 12 1 12 13 19 10 14 8 10 10 10 7 7 9 6 3 12 12 8 12 9 8 6 3 19 11 9 7 27 44 31 24
10 12 15 16 13 12 9 10 18 6 10 4 5 5 9 15 10 16 6 8 13 10 7 7 13 10 15 6 3 10 9 9 9 5 9 5 10 9 5 19 27 26 28 29 20
3 10 15 18 18 16 4 12 14 11 2 5 5 11 10 5 3 8 10 3 3 6 9 6 8 4 5 5 5 3 7 6 13 2 6 5 14 20 4 10 26 26 29 32 25
1 6 12 19 19 14 10 6 3 2 2 1 4 4 2 10 7 10 5 4 2 4 2 6 8 3 8 4 12 7 6 7 7 5 9 9 12 10 11 14 17 35 43 40 39
6 6 11 16 15 8 8 10 7 6 3 3 4 2 5 3 1 1 1 1 1 3 5 8 7 9 5 3 9 5 5 9 6 6 8 4 11 14 12 9 11 29 42 53 62
7 5 11 12 6 11 5 10 6 5 2 2 3 4 6 5 1 1 3 8 1 4 3 2 7 5 16 4 3 4 10 8 8 11 4 2 14 5 12 13 14 37 68 58 50
5 4 8 8 6 3 1 3 1 3 3 5 4 3 4 6 6 2 1 2 3 2 3 7 4 7 18 6 5 5 8 7 6 4 14 6 12 1 6 15 42 53 64 65 60
3 4 3 7 12 14 8 1 2 2 2 2 3 5 5 7 2 4 3 3 4 3 5 4 4 13 13 14 5 7 8 9 10 6 7 16 42 34 24 23 61 71 67 57 58
2 2 2 2 5 10 6 9 5 3 4 4 6 6 8 1 3 5 6 3 3 3 4 6 8 2 9 11 5 10 19 16 20 20 11 45 10 31 29 25 43 57 68 70 65
4 6 6 7 8 7 2 12 14 6 10 5 6 4 9 8 8 5 4 6 5 2 6 3 5 4 11 6 5 12 34 16 24 20 17 32 35 8 27 36 57 73 76 71 78
8 8 4 5 6 6 7 10 12 14 8 3 7 7 5 10 12 16 17 12 5 12 9 5 9 5 11 9 13 15 16 10 7 9 12 8 13 18 18 46 58 70 59 71 86
Wind_Direction_500mb
349 350 355 356 356 354 355 355 355 358 359 2 358 8 58 70 50 35 23 14 19 17 30 65 101 108 92 79 74 83 63 125 218 154 324 3 32 37 45 91 166 43 244 208 194
334 336 346 351 355 356 1 359 355 355 359 358 10 5 48 79 49 37 20 5 11 31 50 80 100 110 72 74 42 68 87 201 95 95 321 337 21 345 29 35 286 281 289 241 190
347 339 341 358 357 359 358 2 1 356 2 358 6 21 38 81 75 15 13 6 15 47 77 90 104 97 80 86 39 77 121 191 36 17 347 334 44 355 355 30 337 306 311 220 192
347 356 9 4 4 360 6 5 3 1 3 7 4 56 75 54 75 7 11 14 23 49 93 99 99 67 73 77 66 90 75 83 81 7 19 359 335 352 338 279 302 287 267 218 199
346 3 5 3 1 359 1 1 3 6 11 21 36 82 90 78 28 21 21 26 43 68 86 95 76 83 96 102 100 76 100 70 44 20 14 338 313 281 297 295 294 267 201 198 202
348 360 360 358 356 349 341 357 9 14 21 39 53 77 88 75 24 22 27 34 59 81 82 82 88 93 95 69 79 73 94 76 28 6 19 5 263 314 208 317 238 196 194 198 210
352 360 356 358 352 353 353 11 12 24 33 52 74 86 72 63 32 28 36 48 61 88 92 89 87 85 94 90 63 62 44 10 18 345 335 323 204 227 296 270 213 201 204 211 218
5 357 358 355 352 8 26 26 23 29 38 57 70 77 80 46 42 47 50 56 70 93 96 93 92 79 58 97 37 47 45 16 346 7 321 29 268 244 293 242 228 218 218 222 230
12 3 357 351 3 26 37 44 21 25 57 58 57 88 55 28 36 43 54 71 80 93 94 96 84 74 57 58 21 12 150 314 316 47 310 336 263 221 278 251 247 236 233 232 235
17 12 358 357 15 41 61 66 59 57 19 48 36 66 28 5 22 28 43 64 81 92 93 65 65 68 33 50 200 282 359 296 260 338 345 292 269 281 272 274 259 247 236 233 233
31 23 53 57 50 32 12 101 58 55 61 62 50 72 24 28 36 26 36 43 52 56 38 18 65 51 347 334 340 325 292 294 314 7 332 314 291 288 291 275 264 256 245 242 246
32 43 56 49 37 27 57 86 76 108 69 56 55 47 30 28 28 31 36 46 41 43 344 31 73 335 294 5 62 33 342 314 296 11 346 3 300 279 275 263 263 265 259 253 254
22 46 65 41 46 60 73 83 76 80 78 26 28 23 18 22 37 13 24 34 58 46 17 86 342 335 53 31 33 47 37 348 257 318 87 322 309 322 334 317 275 256 255 246 250
35 45 50 21 44 51 66 61 42 30 74 334 352 14 359 34 46 18 23 39 38 96 47 69 341 18 52 70 5 28 334 312 344 28 292 7 288 297 333 308 272 268 254 255 257
58 88 49 38 41 51 60 77 44 20 53 317 328 344 1 65 334 14 28 56 70 22 68 279 10 18 49 322 336 280 30 31 63 78 43 1 79 273 352 324 358 1 317 267 264
89 85 33 28 38 51 58 34 5 44 287 336 333 353 14 21 17 353 29 61 79 87 45 125 58 63 221 265 191 290 35 43 56 79 28 291 82 286 289 320 316 320 337 318 262
73 63 37 28 31 30 356 332 40 88 345 309 330 2 72 348 1 22 35 20 51 56 2 355 3 342 13 320 13 41 45 348 358 10 223 303 13 247 300 294 276 317 328 328 282
59 37 21 13 10 352 339 51 67 249 237 5 314 314 50 360 19 354 50 41 32 49 83 90 336 9 357 50 319 38 118 145 232 265 275 12 234 241 246 300 314 315 322 329 304
350 352 1 3 356 345 342 51 182 197 357 320 317 53 336 26 125 57 38 76 35 33 111 63 295 337 13 345 61 287 47 156 99 91 39 278 287 309 325 37 19 2 7 2 334
328 338 348 355 352 353 69 151 121 237 346 354 106 102 331 310 26 43 359 270 106 53 113 181 353 269 295 359 43 117 151 33 9 341 306 305 274 243 326 332 340 10 16 4 343
337 320 351 354 350 26 109 208 221 193 143 44 155 129 212 260 354 269 252 202 184 121 81 131 97 288 24 182 183 28 19 43 119 130 202 270 255 213 219 227 286 347 346 338 332
346 350 349 354 19 56 90 190 147 168 173 182 130 117 177 158 252 62 262 202 227 155 127 197 136 257 228 140 148 171 190 167 127 268 234 191 270 190 216 265 304 330 332 338 337
342 332 348 5 99 351 354 329 227 158 174 172 155 74 109 169 28 248 244 161 208 169 168 174 318 356 337 19 3 205 207 145 115 79 210 149 260 31 211 317 338 328 336 335 335
314 21 44 60 88 128 134 252 282 204 193 193 127 130 143 30 29 248 262 158 175 174 129 147 149 177 204 214 142 263 207 193 147 147 237 223 272 289 318 341 334 335 336 339 340
312 103 123 269 9 102 112 139 136 231 216 208 355 209 161 92 332 239 242 247 130 161 109 120 201 280 260 238 219 253 254 204 199 229 215 276 258 286 317 317 324 332 340 336 339
241 174 138 87 114 123 358 210 177 240 155 242 173 170 170 178 197 244 171 217 216 169 146 44 239 109 294 341 298 268 266 239 233 251 259 279 282 323 329 343 340 337 335 339 339
223 202 171 150 133 105 221 183 210 161 195 164 184 126 212 246 262 270 247 251 195 166 165 103 128 77 262 343 329 303 247 173 202 216 164 223 248 311 337 343 334 325 340 338 334
Wind_Speed_850mb
25 24 23 24 27 29 31 31 30 29 24 18 14 11 10 13 13 12 12 20 17 12 10 7 9 13 14 10 9 6 8 3 2 6 5 14 7 6 5 3 1 1 1 3 13
25 23 21 23 26 27 29 30 27 26 22 18 11 9 5 8 7 24 23 19 15 10 10 7 12 14 9 6 7 9 6 5 0 0 2 10 6 10 2 3 1 4 5 8 17
31 21 18 21 24 26 29 30 27 24 21 16 10 6 5 5 8 24 23 19 12 8 9 9 11 10 9 6 8 5 5 2 4 7 4 9 2 10 5 5 4 9 13 9 22
21 18 17 21 22 27 26 29 26 24 21 15 10 7 8 5 4 19 20 16 11 8 8 10 8 6 7 7 7 8 6 3 2 6 3 4 12 6 3 3 10 11 14 15 24
19 19 21 18 21 24 24 28 24 22 18 15 7 8 9 14 16 18 18 14 10 9 10 10 10 6 8 8 7 7 2 6 3 6 5 6 3 6 9 8 9 8 11 16 17
13 14 17 18 20 24 23 22 21 21 17 14 12 11 10 15 20 19 18 14 12 10 14 11 10 14 13 8 8 4 6 5 6 11 5 4 3 5 3 6 8 9 14 17 18
12 15 17 17 23 27 17 12 17 20 16 14 14 23 31 17 22 21 17 16 15 14 16 15 13 5 7 7 8 6 3 4 15 16 4 8 2 8 9 4 8 14 17 18 18
12 17 16 18 22 20 15 14 13 16 16 12 11 14 16 21 19 16 16 19 16 16 16 16 15 15 10 10 10 9 9 7 4 19 5 3 12 5 7 10 13 16 19 19 21
16 19 19 19 16 12 14 17 13 13 20 16 15 11 10 14 19 23 19 17 18 18 17 13 8 11 8 7 9 13 1 3 10 8 8 2 10 7 9 14 20 20 20 20 21
20 23 22 18 12 14 10 13 37 12 5 11 20 10 23 21 24 25 14 15 13 10 8 6 10 9 9 10 4 4 4 6 7 11 10 8 19 14 18 17 24 23 22 21 21
19 27 25 22 18 14 15 4 4 17 53 27 21 15 28 12 28 26 15 8 9 15 10 13 15 8 7 8 4 3 3 7 4 9 9 6 15 26 39 31 33 29 27 24 23
18 21 21 22 23 22 21 17 21 14 23 33 32 26 28 23 13 36 19 9 16 9 14 12 8 8 8 8 8 9 4 8 9 8 5 12 27 26 29 22 24 28 29 27 26
18 16 15 20 24 23 23 27 18 11 10 21 32 31 27 21 20 36 29 12 16 12 14 12 5 13 6 12 9 6 4 6 7 14 6 14 14 13 6 7 13 22 24 29 29
12 11 13 16 13 16 17 13 12 10 10 23 23 21 26 6 12 31 24 12 16 4 8 12 15 9 9 9 8 5 8 6 7 10 5 12 9 15 11 18 14 24 30 29 24
11 11 13 20 12 14 9 5 4 2 11 20 15 18 16 15 9 22 29 20 9 8 7 5 11 13 16 4 5 5 9 6 5 8 8 16 8 17 9 12 12 21 26 29 25
20 13 11 12 16 12 9 5 4 13 3 13 15 20 11 21 15 22 12 16 10 8 13 4 4 6 3 5 0 3 2 9 7 6 6 7 6 13 6 5 10 19 36 23 28
16 15 13 14 10 9 8 4 10 13 7 13 8 12 1 12 13 19 10 14 8 10 10 10 7 7 9 6 3 12 12 8 12 9 8 6 3 19 11 9 7 27 44 31 24
10 12 15 16 13 12 9 10 18 6 10 4 5 5 9 15 10 16 6 8 13 10 7 7 13 10 15 6 3 10 9 9 9 5 9 5 10 9 5 19 27 26 28 29 20
3 10 15 18 18 16 4 12 14 11 2 5 5 11 10 5 3 8 10 3 3 6 9 6 8 4 5 5 5 3 7 6 13 2 6 5 14 20 4 10 26 26 29 32 25
1 6 12 19 19 14 10 6 3 2 2 1 4 4 2 10 7 10 5 4 2 4 2 6 8 3 8 4 12 7 6 7 7 5 9 9 12 10 11 14 17 35 43 40 39
6 6 11 16 15 8 8 10 7 6 3 3 4 2 5 3 1 1 1 1 1 3 5 8 7 9 5 3 9 5 5 9 6 6 8 4 11 14 12 9 11 29 42 53 62
7 5 11 12 6 11 5 10 6 5 2 2 3 4 6 5 1 1 3 8 1 4 3 2 7 5 16 4 3 4 10 8 8 11 4 2 14 5 12 13 14 37 68 58 50
5 4 8 8 6 3 1 3 1 3 3 5 4 3 4 6 6 2 1 2 3 2 3 7 4 7 18 6 5 5 8 7 6 4 14 6 12 1 6 15 42 53 64 65 60
3 4 3 7 12 14 8 1 2 2 2 2 3 5 5 7 2 4 3 3 4 3 5 4 4 13 13 14 5 7 8 9 10 6 7 16 42 34 24 23 61 71 67 57 58
2 2 2 2 5 10 6 9 5 3 4 4 6 6 8 1 3 5 6 3 3 3 4 6 8 2 9 11 5 10 19 16 20 20 11 45 10 31 29 25 43 57 68 70 65
4 6 6 7 8 7 2 12 14 6 10 5 6 4 9 8 8 5 4 6 5 2 6 3 5 4 11 6 5 12 34 16 24 20 17 32 35 8 27 36 57 73 76 71 78
8 8 4 5 6 6 7 10 12 14 8 3 7 7 5 10 12 16 17 12 5 12 9 5 9 5 11 9 13 15 16 10 7 9 12 8 13 18 18 46 58 70 59 71 86
Wind_Direction_850mb
349 350 355 356 356 354 355 355 355 358 359 2 358 8 58 70 50 35 23 14 19 17 30 65 101 108 92 79 74 83 63 125 218 154 324 3 32 37 45 91 166 43 244 208 194
334 336 346 351 355 356 1 359 355 355 359 358 10 5 48 79 49 37 20 5 11 31 50 80 100 110 72 74 42 68 87 201 95 95 321 337 21 345 29 35 286 281 289 241 190
347 339 341 358 357 359 358 2 1 356 2 358 6 21 38 81 75 15 13 6 15 47 77 90 104 97 80 86 39 77 121 191 36 17 347 334 44 355 355 30 337 306 311 220 192
347 356 9 4 4 360 6 5 3 1 3 7 4 56 75 54 75 7 11 14 23 49 93 99 99 67 73 77 66 90 75 83 81 7 19 359 335 352 338 279 302 287 267 218 199
346 3 5 3 1 359 1 1 3 6 11 21 36 82 90 78 28 21 21 26 43 68 86 95 76 83 96 102 100 76 100 70 44 20 14 338 313 281 297 295 294 267 201 198 202
348 360 360 358 356 349 341 357 9 14 21 39 53 77 88 75 24 22 27 34 59 81 82 82 88 93 95 69 79 73 94 76 28 6 19 5 263 314 208 317 238 196 194 198 210
352 360 356 358 352 353 353 11 12 24 33 52 74 86 72 63 32 28 36 48 61 88 92 89 87 85 94 90 63 62 44 10 18 345 335 323 204 227 296 270 213 201 204 211 218
5 357 358 355 352 8 26 26 23 29 38 57 70 77 80 46 42 47 50 56 70 93 96 93 92 79 58 97 37 47 45 16 346 7 321 29 268 244 293 242 228 218 218 222 230
12 3 357 351 3 26 37 44 21 25 57 58 57 88 55 28 36 43 54 71 80 93 94 96 84 74 57 58 21 12 150 314 316 47 310 336 263 221 278 251 247 236 233 232 235
17 12 358 357 15 41 61 66 59 57 19 48 36 66 28 5 22 28 43 64 81 92 93 65 65 68 33 50 200 282 359 296 260 338 345 292 269 281 272 274 259 247 236 233 233
31 23 53 57 50 32 12 101 58 55 61 62 50 72 24 28 36 26 36 43 52 56 38 18 65 51 347 334 340 325 292 294 314 7 332 314 291 288 291 275 264 256 245 242 246
32 43 56 49 37 27 57 86 76 108 69 56 55 47 30 28 28 31 36 46 41 43 344 31 73 335 294 5 62 33 342 314 296 11 346 3 300 279 275 263 263 265 259 253 254
22 46 65 41 46 60 73 83 76 80 78 26 28 23 18 22 37 13 24 34 58 46 17 86 342 335 53 31 33 47 37 348 257 318 87 322 309 322 334 317 275 256 255 246 250
35 45 50 21 44 51 66 61 42 30 74 334 352 14 359 34 46 18 23 39 38 96 47 69 341 18 52 70 5 28 334 312 344 28 292 7 288 297 333 308 272 268 254 255 257
58 88 49 38 41 51 60 77 44 20 53 317 328 344 1 65 334 14 28 56 70 22 68 279 10 18 49 322 336 280 30 31 63 78 43 1 79 273 352 324 358 1 317 267 264
89 85 33 28 38 51 58 34 5 44 287 336 333 353 14 21 17 353 29 61 79 87 45 125 58 63 221 265 191 290 35 43 56 79 28 291 82 286 289 320 316 320 337 318 262
73 63 37 28 31 30 356 332 40 88 345 309 330 2 72 348 1 22 35 20 51 56 2 355 3 342 13 320 13 41 45 348 358 10 223 303 13 247 300 294 276 317 328 328 282
59 37 21 13 10 352 339 51 67 249 237 5 314 314 50 360 19 354 50 41 32 49 83 90 336 9 357 50 319 38 118 145 232 265 275 12 234 241 246 300 314 315 322 329 304
350 352 1 3 356 345 342 51 182 197 357 320 317 53 336 26 125 57 38 76 35 33 111 63 295 337 13 345 61 287 47 156 99 91 39 278 287 309 325 37 19 2 7 2 334
328 338 348 355 352 353 69 151 121 237 346 354 106 102 331 310 26 43 359 270 106 53 113 181 353 269 295 359 43 117 151 33 9 341 306 305 274 243 326 332 340 10 16 4 343
337 320 351 354 350 26 109 208 221 193 143 44 155 129 212 260 354 269 252 202 184 121 81 131 97 288 24 182 183 28 19 43 119 130 202 270 255 213 219 227 286 347 346 338 332
346 350 349 354 19 56 90 190 147 168 173 182 130 117 177 158 252 62 262 202 227 155 127 197 136 257 228 140 148 171 190 167 127 268 234 191 270 190 216 265 304 330 332 338 337
342 332 348 5 99 351 354 329 227 158 174 172 155 74 109 169 28 248 244 161 208 169 168 174 318 356 337 19 3 205 207 145 115 79 210 149 260 31 211 317 338 328 336 335 335
314 21 44 60 88 128 134 252 282 204 193 193 127 130 143 30 29 248 262 158 175 174 129 147 149 177 204 214 142 263 207 193 147 147 237 223 272 289 318 341 334 335 336 339 340
312 103 123 269 9 102 112 139 136 231 216 208 355 209 161 92 332 239 242 247 130 161 109 120 201 280 260 238 219 253 254 204 199 229 215 276 258 286 317 317 324 332 340 336 339
241 174 138 87 114 123 358 210 177 240 155 242 173 170 170 178 197 244 171 217 216 169 146 44 239 109 294 341 298 268 266 239 233 251 259 279 282 323 329 343 340 337 335 339 339
223 202 171 150 133 105 221 183 210 161 195 164 184 126 212 246 262 270 247 251 195 166 165 103 128 77 262 343 329 303 247 173 202 216 164 223 248 311 337 343 334 325 340 338 334